Terminal Aerodrome Forecast
Issued by NWS

Home | Current Version | Previous Version | Text Only | Print | Product List | Glossary On
Versions: 1 2 3 4 5 6 7 8 9 10 11 12 13 14 15 16 17 18 19
419
FTUS43 KLSX 260520
TAFUIN
TAF
KUIN 260520Z 2606/2706 17011KT P6SM VCSH BKN040
      TEMPO 2607/2609 5SM -SHRA OVC030
     FM261000 18011KT P6SM OVC035
     FM261500 21013KT P6SM OVC025
     FM261900 25012KT 5SM -SHRA VCTS OVC010CB
     FM270000 32012KT P6SM OVC020=

USA.gov is the U.S. government's official web portal to all federal, state and local government web resources and services.